Time,TemperatureF,DewpointF,PressureIn,WindDirection,WindDirectionDegrees,WindSpeedMPH,WindSpeedGustMPH,Humidity,HourlyPrecipIn,Conditions,Clouds,dailyrainin,SoftwareType,DateUTC
2013-05-23 00:04:00,73.0,72.0,29.92,ESE,103,0.0,0.0,98,0.00,,,0.65,weatherlink.com 1.10,2013-05-23 04:04:00,
2013-05-23 01:14:00,73.1,72.0,29.91,SSW,206,0.0,0.0,97,0.01,,,0.66,weatherlink.com 1.10,2013-05-23 05:14:00,
2013-05-23 01:19:00,72.9,72.0,29.90,SSW,207,0.0,0.0,97,0.01,,,0.66,weatherlink.com 1.10,2013-05-23 05:19:00,
2013-05-23 01:34:00,72.6,72.0,29.90,SSW,208,0.0,0.0,97,0.01,,,0.66,weatherlink.com 1.10,2013-05-23 05:34:00,
2013-05-23 01:49:00,72.4,72.0,29.90,SSW,208,0.0,1.0,98,0.01,,,0.66,weatherlink.com 1.10,2013-05-23 05:49:00,
2013-05-23 02:04:00,72.3,72.0,29.90,SSW,208,0.0,1.0,98,0.01,,,0.66,weatherlink.com 1.10,2013-05-23 06:04:00,
2013-05-23 02:19:00,72.4,72.0,29.90,SSW,208,1.0,1.0,98,0.00,,,0.66,weatherlink.com 1.10,2013-05-23 06:19:00,
2013-05-23 02:34:00,72.7,72.0,29.89,SW,222,0.0,1.0,98,0.00,,,0.66,weatherlink.com 1.10,2013-05-23 06:34:00,
2013-05-23 02:49:00,72.7,72.0,29.89,SSW,204,0.0,1.0,98,0.00,,,0.66,weatherlink.com 1.10,2013-05-23 06:49:00,
2013-05-23 03:04:00,72.7,72.0,29.89,SSE,149,0.0,2.0,98,0.00,,,0.66,weatherlink.com 1.10,2013-05-23 07:04:00,
2013-05-23 03:19:00,72.7,72.0,29.89,SSW,200,0.0,1.0,98,0.00,,,0.66,weatherlink.com 1.10,2013-05-23 07:19:00,
2013-05-23 03:34:00,72.7,72.0,29.90,SSW,207,0.0,1.0,98,0.00,,,0.66,weatherlink.com 1.10,2013-05-23 07:34:00,
2013-05-23 03:49:00,72.5,72.0,29.90,SSW,207,0.0,0.0,98,0.00,,,0.66,weatherlink.com 1.10,2013-05-23 07:49:00,
2013-05-23 04:04:00,72.6,72.0,29.90,SSW,204,0.0,0.0,98,0.00,,,0.66,weatherlink.com 1.10,2013-05-23 08:04:00,
2013-05-23 04:19:00,72.5,72.0,29.90,SSW,208,0.0,1.0,98,0.00,,,0.66,weatherlink.com 1.10,2013-05-23 08:19:00,
2013-05-23 04:34:00,72.5,72.0,29.90,SSW,212,0.0,1.0,98,0.00,,,0.66,weatherlink.com 1.10,2013-05-23 08:34:00,
2013-05-23 04:49:00,72.7,72.0,29.91,SSW,211,0.0,1.0,98,0.00,,,0.66,weatherlink.com 1.10,2013-05-23 08:49:00,
2013-05-23 05:05:00,72.7,72.0,29.91,SSW,208,0.0,1.0,98,0.00,,,0.66,weatherlink.com 1.10,2013-05-23 09:05:00,
2013-05-23 05:20:00,72.7,72.0,29.91,SW,215,0.0,1.0,98,0.00,,,0.66,weatherlink.com 1.10,2013-05-23 09:20:00,
2013-05-23 05:35:00,72.7,72.0,29.91,SW,228,0.0,1.0,98,0.00,,,0.66,weatherlink.com 1.10,2013-05-23 09:35:00,
2013-05-23 05:50:00,72.7,72.0,29.92,SW,228,0.0,0.0,99,0.00,,,0.66,weatherlink.com 1.10,2013-05-23 09:50:00,
2013-05-23 06:05:00,72.7,72.0,29.92,SW,228,0.0,0.0,99,0.00,,,0.66,weatherlink.com 1.10,2013-05-23 10:05:00,
2013-05-23 06:20:00,72.7,72.0,29.93,SW,228,0.0,0.0,98,0.00,,,0.66,weatherlink.com 1.10,2013-05-23 10:20:00,
2013-05-23 06:35:00,72.5,72.0,29.94,SW,229,0.0,0.0,99,0.00,,,0.66,weatherlink.com 1.10,2013-05-23 10:35:00,
2013-05-23 06:50:00,73.3,73.0,29.94,SW,228,0.0,0.0,99,0.00,,,0.66,weatherlink.com 1.10,2013-05-23 10:50:00,
2013-05-23 07:05:00,73.8,74.0,29.95,SW,228,0.0,1.0,99,0.00,,,0.66,weatherlink.com 1.10,2013-05-23 11:05:00,
2013-05-23 07:20:00,74.6,74.0,29.96,SW,232,0.0,1.0,99,0.00,,,0.66,weatherlink.com 1.10,2013-05-23 11:20:00,
2013-05-23 07:35:00,75.3,75.0,29.96,WSW,238,0.0,1.0,99,0.00,,,0.66,weatherlink.com 1.10,2013-05-23 11:35:00,
2013-05-23 07:50:00,75.9,76.0,29.97,SW,225,0.0,4.0,99,0.00,,,0.66,weatherlink.com 1.10,2013-05-23 11:50:00,
2013-05-23 08:05:00,75.9,75.0,29.98,WNW,288,1.0,5.0,98,0.00,,,0.66,weatherlink.com 1.10,2013-05-23 12:05:00,
2013-05-23 08:20:00,76.1,75.0,29.98,WNW,296,0.0,3.0,97,0.00,,,0.66,weatherlink.com 1.10,2013-05-23 12:20:00,
2013-05-23 08:35:00,76.8,76.0,29.98,NW,325,2.0,4.0,97,0.00,,,0.66,weatherlink.com 1.10,2013-05-23 12:35:00,
2013-05-23 08:50:00,77.7,76.0,29.98,WSW,238,0.0,5.0,95,0.00,,,0.66,weatherlink.com 1.10,2013-05-23 12:50:00,
2013-05-23 09:05:00,79.0,77.0,29.98,NW,309,1.0,4.0,93,0.00,,,0.66,weatherlink.com 1.10,2013-05-23 13:05:00,
2013-05-23 09:20:00,79.9,76.0,29.98,WNW,294,0.0,6.0,88,0.00,,,0.66,weatherlink.com 1.10,2013-05-23 13:20:00,
2013-05-23 09:35:00,80.7,76.0,29.98,WSW,240,2.0,7.0,85,0.00,,,0.66,weatherlink.com 1.10,2013-05-23 13:35:00,
2013-05-23 09:50:00,81.8,76.0,29.98,WSW,245,3.0,8.0,83,0.00,,,0.66,weatherlink.com 1.10,2013-05-23 13:50:00,
2013-05-23 10:05:00,82.6,76.0,29.98,North,358,0.0,9.0,81,0.00,,,0.66,weatherlink.com 1.10,2013-05-23 14:05:00,
2013-05-23 10:20:00,83.3,77.0,29.98,NW,309,5.0,9.0,80,0.00,,,0.66,weatherlink.com 1.10,2013-05-23 14:20:00,
2013-05-23 10:35:00,84.0,77.0,29.98,WSW,243,4.0,5.0,79,0.00,,,0.66,weatherlink.com 1.10,2013-05-23 14:35:00,
2013-05-23 10:50:00,84.6,76.0,29.98,NW,312,3.0,7.0,76,0.00,,,0.66,weatherlink.com 1.10,2013-05-23 14:50:00,
2013-05-23 11:05:00,85.2,76.0,29.98,WNW,302,5.0,9.0,73,0.00,,,0.66,weatherlink.com 1.10,2013-05-23 15:05:00,
2013-05-23 11:20:00,85.9,76.0,29.98,NW,312,2.0,7.0,73,0.00,,,0.66,weatherlink.com 1.10,2013-05-23 15:20:00,
2013-05-23 11:35:00,87.2,76.0,29.98,WNW,297,6.0,6.0,69,0.00,,,0.66,weatherlink.com 1.10,2013-05-23 15:35:00,
2013-05-23 11:50:00,86.2,77.0,29.99,SW,226,3.0,7.0,73,0.00,,,0.66,weatherlink.com 1.10,2013-05-23 15:50:00,
2013-05-23 12:05:00,87.4,75.0,29.98,WSW,257,4.0,9.0,67,0.00,,,0.66,weatherlink.com 1.10,2013-05-23 16:05:00,
2013-05-23 12:20:00,88.0,74.0,29.98,WNW,300,5.0,6.0,63,0.00,,,0.66,weatherlink.com 1.10,2013-05-23 16:20:00,
2013-05-23 12:35:00,87.8,75.0,29.98,WSW,255,1.0,9.0,65,0.00,,,0.66,weatherlink.com 1.10,2013-05-23 16:35:00,
2013-05-23 12:50:00,87.7,74.0,29.98,WNW,283,3.0,8.0,63,0.00,,,0.66,weatherlink.com 1.10,2013-05-23 16:50:00,
2013-05-23 13:05:00,87.9,74.0,29.97,WNW,297,3.0,6.0,63,0.00,,,0.66,weatherlink.com 1.10,2013-05-23 17:05:00,
2013-05-23 13:20:00,88.1,72.0,29.96,West,277,3.0,10.0,59,0.00,,,0.66,weatherlink.com 1.10,2013-05-23 17:20:00,
2013-05-23 13:35:00,89.6,73.0,29.96,WNW,288,1.0,7.0,59,0.00,,,0.66,weatherlink.com 1.10,2013-05-23 17:35:00,
2013-05-23 13:50:00,89.4,72.0,29.96,WNW,302,4.0,8.0,56,0.00,,,0.66,weatherlink.com 1.10,2013-05-23 17:50:00,
2013-05-23 14:05:00,89.1,72.0,29.97,East,89,1.0,8.0,58,0.00,,,0.66,weatherlink.com 1.10,2013-05-23 18:05:00,
2013-05-23 14:20:00,89.9,73.0,29.96,NW,321,2.0,8.0,58,0.00,,,0.00,weatherlink.com 1.10,2013-05-23 18:20:00,
2013-05-23 14:35:00,90.7,72.0,29.96,NNE,12,2.0,7.0,55,0.00,,,0.00,weatherlink.com 1.10,2013-05-23 18:35:00,
2013-05-23 14:50:00,91.0,71.0,29.96,West,276,3.0,5.0,52,0.00,,,0.00,weatherlink.com 1.10,2013-05-23 18:50:00,
2013-05-23 15:05:00,91.0,72.0,29.95,NNE,16,1.0,7.0,53,0.00,,,0.00,weatherlink.com 1.10,2013-05-23 19:05:00,
2013-05-23 15:20:00,91.5,71.0,29.94,East,85,0.0,8.0,52,0.00,,,0.00,weatherlink.com 1.10,2013-05-23 19:20:00,
2013-05-23 15:36:00,92.0,71.0,29.93,NNW,347,1.0,10.0,51,0.00,,,0.00,weatherlink.com 1.10,2013-05-23 19:36:00,
2013-05-23 15:50:00,92.6,70.0,29.93,South,181,1.0,6.0,48,0.00,,,0.00,weatherlink.com 1.10,2013-05-23 19:50:00,
2013-05-23 16:06:00,92.2,71.0,29.92,WNW,296,1.0,7.0,50,0.00,,,0.00,weatherlink.com 1.10,2013-05-23 20:06:00,
2013-05-23 16:21:00,92.2,70.0,29.92,NE,44,1.0,6.0,49,0.00,,,0.00,weatherlink.com 1.10,2013-05-23 20:21:00,
2013-05-23 16:36:00,92.6,70.0,29.92,WNW,284,0.0,6.0,48,0.00,,,0.00,weatherlink.com 1.10,2013-05-23 20:36:00,
2013-05-23 16:51:00,93.4,70.0,29.92,West,271,1.0,4.0,46,0.00,,,0.00,weatherlink.com 1.10,2013-05-23 20:51:00,
2013-05-23 17:06:00,92.8,69.0,29.92,NW,321,0.0,4.0,46,0.00,,,0.00,weatherlink.com 1.10,2013-05-23 21:06:00,
2013-05-23 17:21:00,93.2,70.0,29.92,NE,56,1.0,5.0,47,0.00,,,0.00,weatherlink.com 1.10,2013-05-23 21:21:00,
2013-05-23 17:36:00,92.9,69.0,29.92,North,1,1.0,4.0,46,0.00,,,0.00,weatherlink.com 1.10,2013-05-23 21:36:00,
2013-05-23 17:51:00,93.7,69.0,29.92,NNE,23,1.0,4.0,45,0.00,,,0.00,weatherlink.com 1.10,2013-05-23 21:51:00,
2013-05-23 18:06:00,93.5,70.0,29.92,ESE,111,1.0,4.0,47,0.00,,,0.00,weatherlink.com 1.10,2013-05-23 22:06:00,
2013-05-23 18:21:00,93.4,70.0,29.92,WNW,292,1.0,2.0,47,0.00,,,0.00,weatherlink.com 1.10,2013-05-23 22:21:00,
2013-05-23 18:36:00,93.1,71.0,29.92,NNE,22,0.0,3.0,49,0.00,,,0.00,weatherlink.com 1.10,2013-05-23 22:36:00,
2013-05-23 18:51:00,89.5,76.0,29.92,East,91,4.0,5.0,64,0.00,,,0.00,weatherlink.com 1.10,2013-05-23 22:51:00,
2013-05-23 19:06:00,87.5,76.0,29.93,ESE,109,3.0,6.0,69,0.00,,,0.00,weatherlink.com 1.10,2013-05-23 23:06:00,
2013-05-23 19:21:00,86.5,77.0,29.93,ESE,105,2.0,7.0,73,0.00,,,0.00,weatherlink.com 1.10,2013-05-23 23:21:00,
2013-05-23 19:36:00,84.9,77.0,29.93,SE,139,1.0,6.0,76,0.00,,,0.00,weatherlink.com 1.10,2013-05-23 23:36:00,
2013-05-23 19:51:00,83.9,77.0,29.93,SE,124,2.0,7.0,80,0.00,,,0.00,weatherlink.com 1.10,2013-05-23 23:51:00,
2013-05-23 20:06:00,83.2,76.0,29.94,South,174,3.0,6.0,80,0.00,,,0.00,weatherlink.com 1.10,2013-05-24 00:06:00,
2013-05-23 20:21:00,82.7,76.0,29.95,SE,127,0.0,6.0,80,0.00,,,0.00,weatherlink.com 1.10,2013-05-24 00:21:00,
2013-05-23 20:36:00,82.2,76.0,29.95,ESE,110,1.0,6.0,80,0.00,,,0.00,weatherlink.com 1.10,2013-05-24 00:36:00,
2013-05-23 20:51:00,82.0,76.0,29.96,SE,143,1.0,3.0,81,0.00,,,0.00,weatherlink.com 1.10,2013-05-24 00:51:00,
2013-05-23 21:06:00,81.7,76.0,29.96,SE,132,0.0,4.0,83,0.00,,,0.00,weatherlink.com 1.10,2013-05-24 01:06:00,
2013-05-23 21:21:00,81.5,76.0,29.96,East,93,2.0,4.0,84,0.00,,,0.00,weatherlink.com 1.10,2013-05-24 01:21:00,
2013-05-23 21:36:00,81.5,76.0,29.96,ENE,76,0.0,3.0,84,0.00,,,0.00,weatherlink.com 1.10,2013-05-24 01:36:00,
2013-05-23 21:51:00,81.4,76.0,29.97,ESE,107,0.0,3.0,84,0.00,,,0.00,weatherlink.com 1.10,2013-05-24 01:51:00,
2013-05-23 22:06:00,81.2,76.0,29.97,ESE,122,1.0,2.0,85,0.00,,,0.00,weatherlink.com 1.10,2013-05-24 02:06:00,
2013-05-23 22:21:00,80.9,76.0,29.97,ESE,112,0.0,2.0,85,0.00,,,0.00,weatherlink.com 1.10,2013-05-24 02:21:00,
2013-05-23 22:36:00,80.8,76.0,29.96,SE,129,1.0,1.0,85,0.00,,,0.00,weatherlink.com 1.10,2013-05-24 02:36:00,
2013-05-23 22:51:00,80.6,76.0,29.97,East,101,0.0,1.0,85,0.00,,,0.00,weatherlink.com 1.10,2013-05-24 02:51:00,
2013-05-23 23:06:00,80.0,76.0,29.98,ESE,113,0.0,1.0,86,0.00,,,0.00,weatherlink.com 1.10,2013-05-24 03:06:00,
2013-05-23 23:21:00,80.2,76.0,29.98,ESE,102,0.0,1.0,87,0.00,,,0.00,weatherlink.com 1.10,2013-05-24 03:21:00,
2013-05-23 23:36:00,79.6,76.0,29.98,ESE,114,0.0,1.0,88,0.00,,,0.00,weatherlink.com 1.10,2013-05-24 03:36:00,
2013-05-23 23:52:00,79.1,76.0,29.98,ESE,118,0.0,0.0,89,0.00,,,0.00,weatherlink.com 1.10,2013-05-24 03:52:00,